ETH425 OBBI-HAAB

Flight info

Callsign ETH425
Flight time 2h 55m
Altitude 34000
Route BHR B457 NARMI DCT SITER DCT BOSOB DCT EGREN/N0469F330 T530 DAVLO/N0465F350 T530 ASKET/N0467F340 L564 TULIS V700 ORSEM DCT NISMI DCT IBRAD DCT MEKEL MEKEL2A
Aircraft A320/M-SDE3FGHIRWY/LB1

Departure

Time 2026-04-27 05:55
Airport Bahrain International Airport (OBBI)

Arrival

Time 2026-04-27 08:50
Airport Addis Ababa Bole International Airport (HAAB)
Time Latitude Longitude Altitude Speed Heading
2026-04-27 05:29 26.26839 50.63082 14 ft 0 kts 218°
2026-04-27 05:49 26.26837 50.63082 14 ft 2 kts 198°
2026-04-27 05:49 26.26878 50.63121 15 ft 11 kts 32°
2026-04-27 05:49 26.26946 50.63173 13 ft 13 kts 44°
2026-04-27 05:50 26.26903 50.63321 12 ft 26 kts 122°
2026-04-27 05:50 26.26806 50.63491 13 ft 26 kts 122°
2026-04-27 05:50 26.26710 50.63662 14 ft 26 kts 122°
2026-04-27 05:50 26.26614 50.63832 15 ft 26 kts 124°
2026-04-27 05:51 26.26514 50.63999 15 ft 26 kts 123°
2026-04-27 05:51 26.26411 50.64177 13 ft 29 kts 123°
2026-04-27 05:51 26.26300 50.64366 12 ft 30 kts 123°
2026-04-27 05:51 26.26192 50.64557 12 ft 29 kts 122°
2026-04-27 05:52 26.26084 50.64747 14 ft 29 kts 124°
2026-04-27 05:52 26.26009 50.64906 14 ft 14 kts 70°
2026-04-27 05:52 26.26030 50.64942 15 ft 0 kts 32°
2026-04-27 05:52 26.26039 50.64951 15 ft 10 kts 45°
2026-04-27 05:53 26.26109 50.65010 16 ft 12 kts
2026-04-27 05:53 26.26153 50.64978 16 ft 0 kts 300°
2026-04-27 05:53 26.26202 50.64888 16 ft 44 kts 302°
2026-04-27 05:54 26.26501 50.64392 14 ft 107 kts 303°
2026-04-27 05:54 26.26996 50.63534 13 ft 155 kts 304°
2026-04-27 05:54 26.27627 50.62408 191 ft 181 kts 304°
2026-04-27 05:54 26.28339 50.61176 602 ft 196 kts 304°
2026-04-27 05:55 26.29127 50.59861 1051 ft 214 kts 306°
2026-04-27 05:55 26.30002 50.58410 1500 ft 238 kts 305°
2026-04-27 05:55 26.30802 50.56703 1880 ft 261 kts 287°
2026-04-27 05:55 26.30880 50.54653 2437 ft 271 kts 265°
2026-04-27 05:56 26.30712 50.52555 3162 ft 272 kts 269°
2026-04-27 05:56 26.30635 50.50484 3922 ft 271 kts 270°
2026-04-27 05:56 26.30586 50.48387 4666 ft 271 kts 270°
2026-04-27 05:56 26.30540 50.46287 5398 ft 271 kts 269°
2026-04-27 05:57 26.30484 50.44194 6142 ft 270 kts 269°
2026-04-27 05:57 26.30417 50.42103 6848 ft 270 kts 268°
2026-04-27 05:57 26.30343 50.40004 7490 ft 272 kts 268°
2026-04-27 05:57 26.30265 50.37890 8162 ft 273 kts 268°
2026-04-27 05:58 26.30134 50.35776 8848 ft 275 kts 261°
2026-04-27 05:58 26.29553 50.33773 9506 ft 279 kts 244°
2026-04-27 05:58 26.28329 50.32076 10121 ft 287 kts 225°
2026-04-27 05:58 26.26735 50.30592 10264 ft 309 kts 223°
2026-04-27 05:59 26.25001 50.29041 10391 ft 330 kts 222°
2026-04-27 05:59 26.23150 50.27414 10505 ft 348 kts 221°
2026-04-27 05:59 26.21197 50.25707 10642 ft 365 kts 221°
2026-04-27 05:59 26.19176 50.23942 11018 ft 372 kts 221°
2026-04-27 06:00 26.15117 50.20386 12106 ft 375 kts 221°
2026-04-27 06:00 26.13068 50.18582 12694 ft 376 kts 221°
2026-04-27 06:00 26.11016 50.16770 13262 ft 377 kts 221°
2026-04-27 06:01 26.08962 50.14954 13834 ft 378 kts 221°
2026-04-27 06:01 26.06895 50.13129 14280 ft 381 kts 221°
2026-04-27 06:01 26.04810 50.11293 14725 ft 384 kts 221°
2026-04-27 06:01 26.02707 50.09442 15137 ft 387 kts 221°
2026-04-27 06:02 26.00587 50.07574 15545 ft 390 kts 221°
2026-04-27 06:02 25.98479 50.05719 15954 ft 393 kts 221°
2026-04-27 06:02 25.96326 50.03826 16366 ft 396 kts 221°
2026-04-27 06:02 25.94156 50.01919 16771 ft 399 kts 221°
2026-04-27 06:03 25.91970 49.99995 17169 ft 402 kts 221°
2026-04-27 06:03 25.89767 49.98055 17556 ft 406 kts 221°
2026-04-27 06:03 25.87549 49.96102 17943 ft 408 kts 221°
2026-04-27 06:03 25.85311 49.94133 18273 ft 412 kts 221°
2026-04-27 06:04 25.83055 49.92152 18592 ft 415 kts 221°
2026-04-27 06:04 25.80815 49.90186 18950 ft 417 kts 221°
2026-04-27 06:04 25.78540 49.88193 19323 ft 418 kts 221°
2026-04-27 06:04 25.76256 49.86196 19720 ft 418 kts 221°
2026-04-27 06:05 25.73967 49.84196 20108 ft 419 kts 221°
2026-04-27 06:05 25.71674 49.82190 20466 ft 420 kts 221°
2026-04-27 06:05 25.69379 49.80182 20823 ft 421 kts 221°
2026-04-27 06:05 25.67076 49.78168 21181 ft 422 kts 221°
2026-04-27 06:06 25.64770 49.76153 21530 ft 423 kts 221°
2026-04-27 06:06 25.62454 49.74133 21868 ft 424 kts 222°
2026-04-27 06:06 25.60169 49.72141 22213 ft 424 kts 222°
2026-04-27 06:06 25.57847 49.70116 22546 ft 425 kts 222°
2026-04-27 06:07 25.55519 49.68085 22861 ft 427 kts 222°
2026-04-27 06:07 25.53188 49.66048 23176 ft 428 kts 222°
2026-04-27 06:07 25.50852 49.64007 23509 ft 427 kts 222°
2026-04-27 06:07 25.48517 49.61971 23784 ft 428 kts 222°
2026-04-27 06:08 25.46173 49.59929 24030 ft 429 kts 222°
2026-04-27 06:08 25.43824 49.57885 24264 ft 430 kts 222°
2026-04-27 06:08 25.41467 49.55836 24490 ft 431 kts 222°
2026-04-27 06:08 25.39138 49.53815 24710 ft 432 kts 223°
2026-04-27 06:09 25.36773 49.51762 24939 ft 433 kts 223°
2026-04-27 06:09 25.34402 49.49702 25199 ft 433 kts 223°
2026-04-27 06:09 25.32032 49.47643 25429 ft 434 kts 223°
2026-04-27 06:09 25.29655 49.45582 25645 ft 435 kts 223°
2026-04-27 06:10 25.27271 49.43516 25863 ft 436 kts 223°
2026-04-27 06:10 25.24877 49.41443 26052 ft 438 kts 223°
2026-04-27 06:10 25.22476 49.39367 26265 ft 439 kts 223°
2026-04-27 06:10 25.20103 49.37317 26489 ft 439 kts 223°
2026-04-27 06:11 25.17700 49.35246 26797 ft 437 kts 223°
2026-04-27 06:11 25.15303 49.33181 27098 ft 436 kts 223°
2026-04-27 06:11 25.12916 49.31119 27379 ft 435 kts 223°
2026-04-27 06:11 25.10539 49.29063 27722 ft 433 kts 223°
2026-04-27 06:12 25.08175 49.27021 28087 ft 431 kts 223°
2026-04-27 06:12 25.05822 49.24988 28410 ft 430 kts 223°
2026-04-27 06:12 25.03462 49.22948 28536 ft 432 kts 223°
2026-04-27 06:12 25.01091 49.20898 28665 ft 435 kts 223°
2026-04-27 06:13 24.98703 49.18840 28794 ft 437 kts 223°
2026-04-27 06:13 24.96334 49.16803 28929 ft 439 kts 223°
2026-04-27 06:13 24.93917 49.14728 29077 ft 441 kts 223°
2026-04-27 06:13 24.91499 49.12650 29295 ft 441 kts 223°
2026-04-27 06:14 24.89085 49.10575 29550 ft 440 kts 223°
2026-04-27 06:14 24.86674 49.08503 29824 ft 439 kts 223°
2026-04-27 06:14 24.84262 49.06431 29973 ft 441 kts 223°
2026-04-27 06:14 24.81841 49.04352 30109 ft 442 kts 223°
2026-04-27 06:15 24.79416 49.02272 30291 ft 442 kts 223°
2026-04-27 06:15 24.76990 49.00193 30478 ft 442 kts 223°
2026-04-27 06:15 24.74596 48.98141 30667 ft 442 kts 223°
2026-04-27 06:15 24.72173 48.96065 30868 ft 441 kts 223°
2026-04-27 06:16 24.69753 48.93991 31055 ft 441 kts 223°
2026-04-27 06:16 24.67331 48.91917 31232 ft 441 kts 223°
2026-04-27 06:16 24.64912 48.89848 31425 ft 441 kts 224°
2026-04-27 06:16 24.62491 48.87779 31611 ft 441 kts 224°
2026-04-27 06:17 24.60072 48.85713 31801 ft 440 kts 224°
2026-04-27 06:17 24.57654 48.83650 31989 ft 440 kts 224°
2026-04-27 06:17 24.55236 48.81585 32172 ft 440 kts 224°
2026-04-27 06:17 24.52821 48.79522 32357 ft 440 kts 224°
2026-04-27 06:18 24.50441 48.77492 32544 ft 439 kts 224°
2026-04-27 06:18 24.48027 48.75435 32722 ft 439 kts 224°
2026-04-27 06:18 24.45617 48.73382 32871 ft 439 kts 224°
2026-04-27 06:18 24.43204 48.71327 32922 ft 439 kts 224°
2026-04-27 06:19 24.38388 48.67223 32920 ft 438 kts 224°
2026-04-27 06:19 24.33598 48.63157 32919 ft 438 kts 224°
2026-04-27 06:20 24.28780 48.59075 32919 ft 438 kts 224°
2026-04-27 06:20 24.23969 48.54986 32923 ft 438 kts 224°
2026-04-27 06:21 24.19159 48.50902 32897 ft 438 kts 224°
2026-04-27 06:21 24.15149 48.47515 32901 ft 438 kts 224°
2026-04-27 06:22 24.09539 48.42763 32901 ft 439 kts 224°
2026-04-27 06:22 24.04713 48.38676 32904 ft 439 kts 224°
2026-04-27 06:23 23.99874 48.34596 32908 ft 439 kts 224°
2026-04-27 06:23 23.95850 48.31209 32910 ft 439 kts 224°
2026-04-27 06:24 23.90219 48.26468 32908 ft 439 kts 224°
2026-04-27 06:24 23.85382 48.22389 32890 ft 440 kts 224°
2026-04-27 06:25 23.81348 48.18997 32899 ft 440 kts 224°
2026-04-27 06:25 23.76487 48.14915 32905 ft 441 kts 224°
2026-04-27 06:26 23.71620 48.10823 32914 ft 442 kts 224°
2026-04-27 06:26 23.66754 48.06732 32914 ft 442 kts 224°
2026-04-27 06:27 23.61877 48.02648 32921 ft 442 kts 224°
2026-04-27 06:27 23.57028 47.98595 32921 ft 442 kts 223°
2026-04-27 06:28 23.52141 47.94511 32898 ft 443 kts 223°
2026-04-27 06:28 23.47253 47.90422 32907 ft 444 kts 223°
2026-04-27 06:29 23.42349 47.86332 32915 ft 444 kts 223°
2026-04-27 06:29 23.37438 47.82235 32920 ft 445 kts 223°
2026-04-27 06:30 23.32560 47.78170 32920 ft 445 kts 223°
2026-04-27 06:30 23.27640 47.74079 32924 ft 445 kts 223°
2026-04-27 06:31 23.22718 47.69985 32924 ft 445 kts 223°
2026-04-27 06:31 23.17796 47.65893 32911 ft 446 kts 223°
2026-04-27 06:32 23.12892 47.61829 32916 ft 447 kts 223°
2026-04-27 06:32 23.07946 47.57738 32919 ft 447 kts 223°
2026-04-27 06:33 23.03003 47.53643 32925 ft 447 kts 223°
2026-04-27 06:33 22.98060 47.49541 32968 ft 448 kts 223°
2026-04-27 06:34 22.95620 47.47517 33148 ft 448 kts 223°
2026-04-27 06:34 22.93145 47.45466 33338 ft 447 kts 223°
2026-04-27 06:34 22.90672 47.43420 33529 ft 447 kts 223°
2026-04-27 06:34 22.88195 47.41376 33686 ft 447 kts 223°
2026-04-27 06:35 22.85718 47.39335 33841 ft 447 kts 223°
2026-04-27 06:35 22.83237 47.37294 33937 ft 449 kts 223°
2026-04-27 06:35 22.78294 47.33224 33942 ft 449 kts 223°
2026-04-27 06:36 22.73317 47.29128 33939 ft 449 kts 223°
2026-04-27 06:36 22.68348 47.25030 33939 ft 449 kts 223°
2026-04-27 06:37 22.63371 47.20937 33942 ft 449 kts 223°
2026-04-27 06:37 22.58388 47.16847 33943 ft 449 kts 223°
2026-04-27 06:38 22.53443 47.12791 33930 ft 449 kts 223°
2026-04-27 06:38 22.48467 47.08712 33931 ft 449 kts 223°
2026-04-27 06:39 22.43486 47.04638 33934 ft 449 kts 223°
2026-04-27 06:39 22.38509 47.00564 33936 ft 449 kts 223°
2026-04-27 06:40 22.33564 46.96517 33941 ft 449 kts 223°
2026-04-27 06:40 22.28585 46.92452 33942 ft 449 kts 223°
2026-04-27 06:41 22.23601 46.88393 33941 ft 449 kts 223°
2026-04-27 06:41 22.18621 46.84330 33932 ft 449 kts 223°
2026-04-27 06:42 22.13665 46.80293 33932 ft 449 kts 223°
2026-04-27 06:42 22.08678 46.76221 33931 ft 450 kts 223°
2026-04-27 06:43 22.03681 46.72160 33933 ft 450 kts 223°
2026-04-27 06:43 21.98675 46.68103 33933 ft 450 kts 223°
2026-04-27 06:44 21.93707 46.64069 33934 ft 450 kts 223°
2026-04-27 06:44 21.88709 46.60005 33925 ft 451 kts 223°
2026-04-27 06:45 21.83695 46.55941 33930 ft 452 kts 222°
2026-04-27 06:45 21.78666 46.51882 33940 ft 452 kts 222°
2026-04-27 06:46 21.73639 46.47822 33948 ft 452 kts 222°
2026-04-27 06:46 21.68647 46.43785 33954 ft 452 kts 222°
2026-04-27 06:47 21.63624 46.39718 33958 ft 452 kts 222°
2026-04-27 06:47 21.58594 46.35660 33949 ft 452 kts 222°
2026-04-27 06:48 21.53557 46.31605 33935 ft 453 kts 222°
2026-04-27 06:48 21.48539 46.27565 33936 ft 454 kts 222°
2026-04-27 06:49 21.43474 46.23493 33945 ft 455 kts 222°
2026-04-27 06:49 21.38398 46.19415 33951 ft 456 kts 222°
2026-04-27 06:50 21.33315 46.15335 33956 ft 456 kts 222°
2026-04-27 06:50 21.28231 46.11254 33963 ft 456 kts 222°
2026-04-27 06:51 21.23184 46.07200 33969 ft 456 kts 222°
2026-04-27 06:51 21.18096 46.03128 33969 ft 456 kts 222°
2026-04-27 06:52 21.13011 45.99064 33970 ft 456 kts 222°
2026-04-27 06:52 21.07933 45.94998 33960 ft 456 kts 222°
2026-04-27 06:53 21.02885 45.90964 33957 ft 456 kts 222°
2026-04-27 06:53 20.97803 45.86908 33954 ft 456 kts 222°
2026-04-27 06:54 20.92720 45.82856 33948 ft 456 kts 222°
2026-04-27 06:54 20.87625 45.78796 33942 ft 457 kts 222°
2026-04-27 06:55 20.82517 45.74732 33940 ft 458 kts 222°
2026-04-27 06:55 20.77431 45.70693 33943 ft 459 kts 222°
2026-04-27 06:56 20.72299 45.66621 33946 ft 459 kts 222°
2026-04-27 06:56 20.67171 45.62548 33946 ft 459 kts 222°
2026-04-27 06:57 20.62045 45.58473 33952 ft 459 kts 222°
2026-04-27 06:57 20.56949 45.54423 33942 ft 460 kts 222°
2026-04-27 06:58 20.49214 45.48305 33951 ft 462 kts 222°
2026-04-27 06:59 20.44049 45.44230 33956 ft 462 kts 222°
2026-04-27 06:59 20.38881 45.40148 33948 ft 462 kts 222°
2026-04-27 07:00 20.33753 45.36090 33954 ft 462 kts 222°
2026-04-27 07:00 20.28582 45.32007 33942 ft 463 kts 222°
2026-04-27 07:01 20.23405 45.27930 33941 ft 463 kts 221°
2026-04-27 07:01 20.18220 45.23844 33944 ft 464 kts 221°
2026-04-27 07:02 20.13063 45.19788 33950 ft 464 kts 221°
2026-04-27 07:02 20.07869 45.15708 33957 ft 464 kts 221°
2026-04-27 07:03 20.02676 45.11629 33963 ft 464 kts 221°
2026-04-27 07:03 19.97483 45.07555 33967 ft 464 kts 221°
2026-04-27 07:04 19.92324 45.03507 33952 ft 464 kts 221°
2026-04-27 07:04 19.87118 44.99432 33977 ft 465 kts 221°
2026-04-27 07:05 19.81907 44.95352 33986 ft 466 kts 221°
2026-04-27 07:05 19.76695 44.91271 33980 ft 465 kts 221°
2026-04-27 07:06 19.71516 44.87221 33976 ft 465 kts 221°
2026-04-27 07:06 19.66305 44.83151 33985 ft 466 kts 221°
2026-04-27 07:07 19.61088 44.79078 33991 ft 466 kts 221°
2026-04-27 07:07 19.55868 44.75009 34003 ft 466 kts 221°
2026-04-27 07:08 19.50679 44.70968 33994 ft 466 kts 221°
2026-04-27 07:08 19.45455 44.66903 34012 ft 466 kts 221°
2026-04-27 07:09 19.40229 44.62841 34016 ft 466 kts 221°
2026-04-27 07:09 19.35008 44.58784 34015 ft 465 kts 221°
2026-04-27 07:10 19.29825 44.54754 34019 ft 465 kts 221°
2026-04-27 07:10 19.24609 44.50710 34031 ft 465 kts 221°
2026-04-27 07:11 19.19391 44.46667 34028 ft 465 kts 221°
2026-04-27 07:11 19.14172 44.42628 34031 ft 465 kts 221°
2026-04-27 07:12 19.08948 44.38587 34043 ft 465 kts 221°
2026-04-27 07:12 19.03757 44.34578 34052 ft 465 kts 220°
2026-04-27 07:13 18.98528 44.30539 34055 ft 465 kts 221°
2026-04-27 07:13 18.93303 44.26498 34062 ft 466 kts 221°
2026-04-27 07:14 18.88072 44.22451 34081 ft 466 kts 221°
2026-04-27 07:14 18.82871 44.18441 34083 ft 466 kts 220°
2026-04-27 07:15 18.77636 44.14408 34097 ft 466 kts 221°
2026-04-27 07:15 18.72402 44.10375 34088 ft 466 kts 220°
2026-04-27 07:16 18.67159 44.06347 34105 ft 466 kts 220°
2026-04-27 07:16 18.61956 44.02344 34118 ft 466 kts 221°
2026-04-27 07:17 18.56717 43.98316 34118 ft 466 kts 220°
2026-04-27 07:17 18.51469 43.94296 34117 ft 466 kts 220°
2026-04-27 07:18 18.46221 43.90278 34129 ft 467 kts 220°
2026-04-27 07:18 18.41001 43.86282 34130 ft 467 kts 220°
2026-04-27 07:19 18.35751 43.82261 34156 ft 467 kts 220°
2026-04-27 07:19 18.30497 43.78235 34162 ft 467 kts 220°
2026-04-27 07:20 18.25239 43.74222 34170 ft 467 kts 220°
2026-04-27 07:20 18.19978 43.70208 34180 ft 467 kts 220°
2026-04-27 07:21 18.14756 43.66219 34207 ft 467 kts 220°
2026-04-27 07:21 18.09497 43.62200 34206 ft 467 kts 220°
2026-04-27 07:22 18.04234 43.58189 34223 ft 467 kts 220°
2026-04-27 07:22 17.98966 43.54182 34224 ft 467 kts 220°
2026-04-27 07:23 17.93735 43.50200 34226 ft 468 kts 220°
2026-04-27 07:23 17.88465 43.46190 34214 ft 468 kts 220°
2026-04-27 07:24 17.83184 43.42185 34225 ft 468 kts 220°
2026-04-27 07:24 17.77909 43.38182 34211 ft 468 kts 220°
2026-04-27 07:25 17.72672 43.34202 34178 ft 468 kts 220°
2026-04-27 07:25 17.67394 43.30197 34179 ft 468 kts 220°
2026-04-27 07:26 17.62120 43.26175 34151 ft 468 kts 221°
2026-04-27 07:26 17.56916 43.22077 34123 ft 468 kts 221°
2026-04-27 07:27 17.51764 43.17975 34109 ft 468 kts 221°
2026-04-27 07:27 17.46561 43.13860 34080 ft 469 kts 221°
2026-04-27 07:28 17.41332 43.09763 34067 ft 469 kts 221°
2026-04-27 07:28 17.36103 43.05664 34039 ft 470 kts 221°
2026-04-27 07:29 17.30872 43.01555 34004 ft 470 kts 221°
2026-04-27 07:29 17.25671 42.97470 34006 ft 471 kts 221°
2026-04-27 07:30 17.20429 42.93358 33982 ft 471 kts 221°
2026-04-27 07:30 17.15185 42.89251 33960 ft 471 kts 221°
2026-04-27 07:31 17.09940 42.85139 33948 ft 471 kts 221°
2026-04-27 07:31 17.04728 42.81053 33930 ft 472 kts 221°
2026-04-27 07:32 16.99470 42.76948 33927 ft 472 kts 221°
2026-04-27 07:32 16.94209 42.72844 33930 ft 472 kts 221°
2026-04-27 07:33 16.88944 42.68743 33925 ft 472 kts 220°
2026-04-27 07:33 16.83715 42.64660 33904 ft 473 kts 220°
2026-04-27 07:34 16.78444 42.60548 33905 ft 473 kts 220°
2026-04-27 07:34 16.73169 42.56442 33917 ft 473 kts 220°
2026-04-27 07:35 16.67894 42.52337 33905 ft 473 kts 220°
2026-04-27 07:35 16.62655 42.48258 33899 ft 473 kts 220°
2026-04-27 07:36 16.57373 42.44155 33902 ft 474 kts 220°
2026-04-27 07:36 16.52087 42.40049 33911 ft 474 kts 220°
2026-04-27 07:37 16.46806 42.35946 33917 ft 474 kts 220°
2026-04-27 07:37 16.41519 42.32315 33895 ft 480 kts 208°
2026-04-27 07:38 16.35038 42.30479 33892 ft 490 kts 189°
2026-04-27 07:38 16.28244 42.29773 33890 ft 491 kts 189°
2026-04-27 07:39 16.21446 42.29042 33891 ft 491 kts 189°
2026-04-27 07:39 16.14636 42.28319 33892 ft 492 kts 189°
2026-04-27 07:40 16.07873 42.27608 33907 ft 492 kts 189°
2026-04-27 07:40 16.01065 42.26889 33904 ft 492 kts 189°
2026-04-27 07:41 15.94251 42.26162 33894 ft 492 kts 189°
2026-04-27 07:41 15.87434 42.25445 33897 ft 492 kts 189°
2026-04-27 07:42 15.80662 42.24739 33899 ft 493 kts 189°
2026-04-27 07:42 15.73845 42.24020 33899 ft 493 kts 189°
2026-04-27 07:43 15.67023 42.23297 33892 ft 493 kts 189°
2026-04-27 07:43 15.60199 42.22586 33893 ft 493 kts 189°
2026-04-27 07:44 15.53415 42.21878 33896 ft 493 kts 189°
2026-04-27 07:44 15.46589 42.21157 33892 ft 493 kts 189°
2026-04-27 07:45 15.39756 42.20440 33884 ft 494 kts 189°
2026-04-27 07:45 15.32916 42.19714 33881 ft 494 kts 189°
2026-04-27 07:46 15.26116 42.18999 33886 ft 494 kts 189°
2026-04-27 07:46 15.19268 42.18285 33892 ft 495 kts 188°
2026-04-27 07:47 15.12412 42.17570 33887 ft 495 kts 188°
2026-04-27 07:47 15.05557 42.16857 33893 ft 495 kts 188°
2026-04-27 07:48 14.98744 42.16144 33884 ft 495 kts 188°
2026-04-27 07:48 14.91886 42.15426 33884 ft 495 kts 188°
2026-04-27 07:49 14.85028 42.14704 33885 ft 495 kts 188°
2026-04-27 07:49 14.78165 42.13990 33885 ft 496 kts 188°
2026-04-27 07:50 14.71305 42.13277 33880 ft 495 kts 188°
2026-04-27 07:50 14.64492 42.12566 33867 ft 496 kts 188°
2026-04-27 07:51 14.57625 42.11848 33869 ft 496 kts 188°
2026-04-27 07:51 14.50750 42.11137 33866 ft 496 kts 188°
2026-04-27 07:52 14.43876 42.10426 33863 ft 497 kts 188°
2026-04-27 07:52 14.37045 42.09714 33864 ft 497 kts 188°
2026-04-27 07:53 14.30166 42.08997 33863 ft 497 kts 188°
2026-04-27 07:53 14.23280 42.08277 33864 ft 497 kts 188°
2026-04-27 07:54 14.16395 42.07563 33861 ft 497 kts 188°
2026-04-27 07:54 14.09554 42.06855 33861 ft 497 kts 187°
2026-04-27 07:55 14.02666 42.06145 33861 ft 497 kts 188°
2026-04-27 07:55 13.95775 42.05432 33865 ft 498 kts 188°
2026-04-27 07:56 13.88888 42.04718 33861 ft 498 kts 187°
2026-04-27 07:56 13.82043 42.04010 33863 ft 498 kts 187°
2026-04-27 07:57 13.75148 42.03292 33862 ft 498 kts 187°
2026-04-27 07:57 13.68254 42.02590 33870 ft 498 kts 187°
2026-04-27 07:58 13.61351 42.01880 33874 ft 498 kts 187°
2026-04-27 07:58 13.54498 42.01175 33886 ft 498 kts 187°
2026-04-27 07:59 13.47637 42.00218 33886 ft 496 kts 197°
2026-04-27 07:59 13.41424 41.97352 33892 ft 488 kts 217°
2026-04-27 07:59 13.38791 41.95184 33891 ft 484 kts 227°
2026-04-27 08:00 13.34219 41.90198 33894 ft 483 kts 229°
2026-04-27 08:00 13.29613 41.85167 33898 ft 484 kts 229°
2026-04-27 08:01 13.24992 41.80140 33904 ft 485 kts 229°
2026-04-27 08:01 13.20371 41.75099 33901 ft 485 kts 229°
2026-04-27 08:02 13.15757 41.70056 33901 ft 484 kts 229°
2026-04-27 08:02 13.11180 41.65051 33888 ft 484 kts 229°
2026-04-27 08:03 13.06567 41.60010 33883 ft 485 kts 229°
2026-04-27 08:03 13.01933 41.54975 34114 ft 485 kts 229°
2026-04-27 08:04 12.99621 41.52462 34335 ft 484 kts 229°
2026-04-27 08:04 12.97314 41.49956 34537 ft 483 kts 229°
2026-04-27 08:04 12.95039 41.47486 34752 ft 482 kts 229°
2026-04-27 08:04 12.92737 41.44984 34853 ft 483 kts 229°
2026-04-27 08:05 12.88130 41.39975 34865 ft 483 kts 229°
2026-04-27 08:05 12.83525 41.34970 34871 ft 482 kts 229°
2026-04-27 08:06 12.78958 41.30001 34868 ft 482 kts 229°
2026-04-27 08:06 12.74363 41.25004 34879 ft 482 kts 229°
2026-04-27 08:07 12.69756 41.20014 34874 ft 482 kts 229°
2026-04-27 08:07 12.65141 41.15025 34883 ft 483 kts 229°
2026-04-27 08:08 12.60528 41.10022 34889 ft 483 kts 229°
2026-04-27 08:08 12.55939 41.05053 34908 ft 483 kts 229°
2026-04-27 08:09 12.51317 41.00055 34913 ft 483 kts 229°
2026-04-27 08:09 12.46695 40.95059 34914 ft 483 kts 229°
2026-04-27 08:10 12.42077 40.90060 34909 ft 484 kts 229°
2026-04-27 08:10 12.37478 40.85091 34923 ft 484 kts 228°
2026-04-27 08:11 12.32848 40.80091 34924 ft 484 kts 228°
2026-04-27 08:11 12.28210 40.75088 34932 ft 485 kts 228°
2026-04-27 08:12 12.23574 40.70083 34928 ft 485 kts 228°
2026-04-27 08:12 12.18959 40.65110 34927 ft 486 kts 228°
2026-04-27 08:13 12.14311 40.60100 34930 ft 486 kts 228°
2026-04-27 08:13 12.09657 40.55089 34938 ft 486 kts 228°
2026-04-27 08:14 12.04998 40.50078 34939 ft 486 kts 228°
2026-04-27 08:14 12.00337 40.45069 34939 ft 487 kts 228°
2026-04-27 08:15 11.95708 40.40088 34939 ft 487 kts 228°
2026-04-27 08:15 11.91045 40.35069 34941 ft 487 kts 228°
2026-04-27 08:16 11.86371 40.30058 34942 ft 487 kts 228°
2026-04-27 08:16 11.81865 40.25228 34958 ft 488 kts 228°
2026-04-27 08:17 11.77458 40.20550 35210 ft 493 kts 227°
2026-04-27 08:17 11.72682 40.15532 35266 ft 490 kts 227°
2026-04-27 08:18 11.67704 40.10825 35038 ft 490 kts 212°
2026-04-27 08:18 11.64714 40.09158 34911 ft 490 kts 208°
2026-04-27 08:18 11.61899 40.07680 34960 ft 491 kts 208°
2026-04-27 08:19 11.56085 40.04664 34958 ft 492 kts 208°
2026-04-27 08:19 11.49978 40.01510 34983 ft 492 kts 208°
2026-04-27 08:20 11.43926 39.98353 34981 ft 492 kts 208°
2026-04-27 08:20 11.37841 39.95168 34982 ft 492 kts 208°
2026-04-27 08:21 11.31752 39.91987 35021 ft 492 kts 208°
2026-04-27 08:21 11.25652 39.88817 35023 ft 492 kts 208°
2026-04-27 08:22 11.19591 39.85664 35033 ft 492 kts 208°
2026-04-27 08:22 11.13498 39.82484 35056 ft 492 kts 208°
2026-04-27 08:23 11.07400 39.79312 35065 ft 492 kts 208°
2026-04-27 08:23 11.01311 39.76148 35078 ft 491 kts 208°
2026-04-27 08:24 10.95264 39.73003 35105 ft 491 kts 208°
2026-04-27 08:24 10.89178 39.69840 35110 ft 492 kts 208°
2026-04-27 08:25 10.83085 39.66674 35132 ft 492 kts 207°
2026-04-27 08:25 10.76993 39.63508 35138 ft 492 kts 208°
2026-04-27 08:26 10.70897 39.60345 35129 ft 492 kts 207°
2026-04-27 08:26 10.64845 39.57206 35141 ft 492 kts 208°
2026-04-27 08:27 10.58756 39.54045 35141 ft 491 kts 207°
2026-04-27 08:27 10.52667 39.50883 35143 ft 491 kts 208°
2026-04-27 08:28 10.46581 39.47724 35135 ft 491 kts 207°
2026-04-27 08:28 10.40537 39.44593 35134 ft 491 kts 207°
2026-04-27 08:29 10.34453 39.41450 35119 ft 491 kts 207°
2026-04-27 08:29 10.28363 39.38311 35101 ft 491 kts 207°
2026-04-27 08:30 10.22283 39.35161 35096 ft 491 kts 207°
2026-04-27 08:30 10.16243 39.32029 35098 ft 491 kts 207°
2026-04-27 08:31 10.10161 39.28884 35075 ft 491 kts 207°
2026-04-27 08:31 10.04065 39.25737 35096 ft 491 kts 207°
2026-04-27 08:32 9.97971 39.22595 35094 ft 492 kts 207°
2026-04-27 08:32 9.91912 39.19469 35102 ft 492 kts 207°
2026-04-27 08:33 9.85820 39.16319 35101 ft 492 kts 207°
2026-04-27 08:33 9.79722 39.13168 35123 ft 492 kts 207°
2026-04-27 08:34 9.73625 39.10030 35139 ft 491 kts 207°
2026-04-27 08:34 9.70576 39.08464 34784 ft 491 kts 207°
2026-04-27 08:34 9.67585 39.06929 33675 ft 488 kts 207°
2026-04-27 08:35 9.64549 39.05369 32218 ft 491 kts 206°
2026-04-27 08:35 9.61496 39.03798 30776 ft 494 kts 206°
2026-04-27 08:35 9.58425 39.02218 29146 ft 497 kts 206°
2026-04-27 08:35 9.55336 39.00629 27388 ft 499 kts 206°
2026-04-27 08:36 9.52234 38.99031 25630 ft 501 kts 206°
2026-04-27 08:36 9.49121 38.97426 23878 ft 503 kts 206°
2026-04-27 08:36 9.46023 38.95832 22506 ft 493 kts 205°
2026-04-27 08:36 9.42869 38.94637 21283 ft 477 kts 192°
2026-04-27 08:37 9.39672 38.94231 20100 ft 463 kts 178°
2026-04-27 08:37 9.36516 38.94569 18929 ft 451 kts 165°
2026-04-27 08:37 9.33597 38.95593 17772 ft 439 kts 153°
2026-04-27 08:37 9.31015 38.97158 16624 ft 428 kts 145°
2026-04-27 08:38 9.28567 38.98815 15533 ft 419 kts 145°
2026-04-27 08:38 9.26172 39.00434 14803 ft 405 kts 145°
2026-04-27 08:38 9.23927 39.01949 14808 ft 372 kts 145°
2026-04-27 08:38 9.21844 39.03349 14683 ft 348 kts 146°
2026-04-27 08:39 9.19774 39.04398 14566 ft 328 kts 159°
2026-04-27 08:39 9.17680 39.05109 14443 ft 309 kts 171°
2026-04-27 08:39 9.15623 39.04937 14315 ft 291 kts 203°
2026-04-27 08:39 9.14079 39.03760 14177 ft 273 kts 237°
2026-04-27 08:40 9.13475 39.02019 13953 ft 260 kts 272°
2026-04-27 08:40 9.13968 39.00320 13527 ft 252 kts 309°
2026-04-27 08:40 9.15337 38.99304 13019 ft 245 kts 347°
2026-04-27 08:40 9.17003 38.99322 12570 ft 242 kts 16°
2026-04-27 08:41 9.18572 38.99944 12108 ft 242 kts 31°
2026-04-27 08:41 9.19808 39.01035 11792 ft 237 kts 55°
2026-04-27 08:41 9.20467 39.02577 11794 ft 241 kts 81°
2026-04-27 08:41 9.20390 39.04176 11790 ft 219 kts 107°
2026-04-27 08:42 9.19714 39.05488 11778 ft 207 kts 129°
2026-04-27 08:42 9.18621 39.06390 11769 ft 203 kts 156°
2026-04-27 08:42 9.17242 39.06627 11778 ft 204 kts 184°
2026-04-27 08:42 9.15852 39.06378 11779 ft 204 kts 198°
2026-04-27 08:43 9.14564 39.05910 11805 ft 192 kts 201°
2026-04-27 08:43 9.13322 39.05406 11842 ft 193 kts 202°
2026-04-27 08:43 9.12087 39.04895 11844 ft 190 kts 202°
2026-04-27 08:43 9.10867 39.04384 11844 ft 189 kts 202°
2026-04-27 08:44 9.09666 39.03869 11711 ft 186 kts 202°
2026-04-27 08:44 9.08494 39.03310 11346 ft 187 kts 206°
2026-04-27 08:44 9.07347 39.02696 11098 ft 185 kts 207°
2026-04-27 08:44 9.06207 39.02073 11082 ft 187 kts 207°
2026-04-27 08:45 9.05075 39.01455 11082 ft 188 kts 207°
2026-04-27 08:45 9.04029 39.00657 11090 ft 190 kts 229°
2026-04-27 08:45 9.03384 38.99501 11028 ft 189 kts 253°
2026-04-27 08:45 9.03010 38.98221 10861 ft 190 kts 255°
2026-04-27 08:46 9.02644 38.96951 10652 ft 187 kts 254°
2026-04-27 08:46 9.02277 38.95683 10439 ft 188 kts 253°
2026-04-27 08:46 9.01908 38.94414 10228 ft 186 kts 253°
2026-04-27 08:46 9.01543 38.93157 9998 ft 186 kts 253°
2026-04-27 08:47 9.01185 38.91928 9764 ft 184 kts 253°
2026-04-27 08:47 9.00826 38.90693 9529 ft 183 kts 253°
2026-04-27 08:47 9.00465 38.89453 9296 ft 184 kts 253°
2026-04-27 08:47 9.00105 38.88218 9091 ft 182 kts 253°
2026-04-27 08:48 8.99749 38.86994 8842 ft 181 kts 252°
2026-04-27 08:48 8.99430 38.85765 8615 ft 180 kts 259°
2026-04-27 08:48 8.99245 38.84509 8421 ft 182 kts 257°
2026-04-27 08:48 8.98898 38.83277 8144 ft 182 kts 248°
2026-04-27 08:49 8.98506 38.82057 7896 ft 181 kts 253°
2026-04-27 08:49 8.98171 38.80848 7665 ft 175 kts 253°
2026-04-27 08:49 8.97844 38.79811 7628 ft 137 kts 254°
2026-04-27 08:49 8.97619 38.79007 7618 ft 83 kts 254°
2026-04-27 08:50 8.97579 38.78829 7618 ft 2 kts 303°
2026-04-27 08:50 8.97595 38.78817 7618 ft 6 kts 331°
2026-04-27 08:50 8.97672 38.78793 7618 ft 11 kts 343°
2026-04-27 08:50 8.97735 38.78772 7619 ft 8 kts 341°
2026-04-27 08:51 8.97802 38.78751 7620 ft 19 kts 343°
2026-04-27 08:51 8.97897 38.78736 7621 ft 6 kts 60°
2026-04-27 08:51 8.97930 38.78835 7621 ft 18 kts 73°
2026-04-27 08:51 8.97965 38.78954 7621 ft 18 kts 73°
2026-04-27 08:52 8.97999 38.79075 7622 ft 18 kts 74°
2026-04-27 08:52 8.98032 38.79197 7622 ft 18 kts 79°
2026-04-27 08:52 8.98064 38.79318 7622 ft 18 kts 74°
2026-04-27 08:52 8.98098 38.79439 7623 ft 18 kts 73°
2026-04-27 08:53 8.98136 38.79541 7624 ft 10 kts 38°
2026-04-27 08:53 8.98186 38.79541 7626 ft 4 kts 342°
2026-04-27 08:53 8.98200 38.79537 7623 ft 1 kts 343°
2026-04-27 08:53 8.98201 38.79536 7623 ft 0 kts 343°
2026-04-27 08:54 8.98203 38.79536 7623 ft 0 kts 345°
2026-04-27 08:54 8.98207 38.79534 7623 ft 0 kts 343°
2026-04-27 08:55 8.98208 38.79534 7623 ft 0 kts 343°
2026-04-27 08:55 8.98209 38.79534 7623 ft 0 kts 344°
2026-04-27 08:55 8.98212 38.79533 7623 ft 0 kts 344°
2026-04-27 08:55 8.98213 38.79533 7623 ft 0 kts 344°